FENGYUN 1C DEB, 31007

Orbit data source: Space-Track

FENGYUN 1C DEB, 31007 is space debris in SSO originally from a launch on Mon, 10 May 1999 UTC launched from the Taiyaun Space Center, China (TSC). Fengyun 1C debris stems from the Chinese weather satellite Fengyun-1C, which was intentionally destroyed by a Chinese anti-satellite missile in 2007. This event dramatically increased the amount of space debris, with thousands of trackable fragments posing hazards to satellites and human spaceflight. The Fengyun 1C debris cloud has become a focal point in discussions about space sustainability and the need for international regulations to prevent the creation of new debris.

Loading next visibility...
Identifier
31007, 1999-025BCZ
Orbit
SSO
Country
Flag of CNCN / PRC
Related business
Manufacturer
Unknown
Mission
Spacecraft
Bus & Motor
Unknown
Mass
Unknown
Launch date (UTC)
1999-05-10 (27 years ago)
Launch vehicle
Unknown
Launch site
Taiyaun Space Center, China (TSC)
Object type
Payload
Rocket body
Debris
Shape & HBR
Unknown shape, 0.1 m
Radar Cross Section
Small (<0.1 m²)

Expand to show TLE details & history
Last TLE update: 3 days ago

TLE from 3 days ago
0 FENGYUN 1C DEB
1 31007U 99025BCZ 26163.24097594  .00006687  00000-0  12948-2 0  9997
2 31007  98.0947 155.9897 0061452 186.7461 173.2921 14.62414815  7362
Epoch: 2026-06-12T05:47Z
TLE epoch observation values (Epoch: 2026-06-12T05:47:00.321Z)
Latitude
0.00007°
Longitude
168.6651°
Altitude
731.501 km
Speed
7.466 km/s
True Right ascension
10h 23m 57s
True Declination
0° 00' 00"
Sunlit
Object was in daylight at epoch
Visualization orbit readout
Latitude
Unknown
Longitude
Unknown
Altitude
Unknown
Speed
Unknown
Apparent Right ascension
Unknown
Apparent Declination
Unknown
Sunlit
N/A
Visualization observer readout
Local Sidereal Time
00:00:03
Azimuth
Unknown
Elevation
Unknown
Doppler factor
Unknown
Orbital elements
Apogee altitude
725.849 km
Perigee altitude
639.072 km
Semi-major axis
7,060.597 km
Eccentricity
0.00615
Inclination
98.0947°
RAAN
155.9897°
Arg. of periapsis
186.7461°
True anomaly
173.37373°
Mean anomaly
173.2921°
Eccentric anomaly
173.33298°
Mean motion
3.65831 °/min
Orbital period
98.41 mins
BSTAR
0.0012948
Loading maneuver chart data...
Computing Atmospheric mass density...

Documentation

Showing up to 5 results
|